sat.trackr.live / text

‹ back to catalog

SUPERVIEW NEO-2 01

NORAD 53128 · 2022-082A

PAYLOAD ACTIVE UNKNOWN

§ Identity

Operator
Country
PRC
Launch date
2022-07-15
Launch site
TAISC
Launch vehicle
Mass (kg)
RCS (m²)

External: N2YO · Heavens-Above · Gunter

§ Orbital elements

Epoch: 2026-05-24T23:58:03.913824Z

Period
94.46 min
Inclination
97.3928°
Eccentricity
0.0001651
Mean motion
15.24504008 rev/d
Perigee alt
491.1 km
Apogee alt
493.4 km
Semi-major
6,870.4 km
B*
6.3767e-6
RAAN
155.2574°
Arg perigee
90.9909°
Mean anomaly
269.1518°
Rev number
21,467

§ Raw data

SUPERVIEW NEO-2 011 53128U 22082A   26144.99865641  .00000087  00000+0  63767-5 0  99962 53128  97.3928 155.2574 0001651  90.9909 269.1518 15.24504008214678

JSON: /api/v1/satellites/53128 · /tle

For live sub-satellite position, see the globe view (requires WebGL).

§ Visibility from observer

Set your observer location to see the next 7 days of passes ≥ 10°. The values pass through the URL so the page stays shareable.

No JS? Fill the form by hand. The geolocation button needs JavaScript.